Previsão horária em Celiny

Hoje, 2 Agosto, Segunda-feira

Tempo Temperatura Precipitação Vento Pressão Humidade
00:00 +18°C° 7.4 mm 2 m/s 737 mmHg 97%
01:00 +18°C° 0 mm 2 m/s 737 mmHg 98%
02:00 +17°C° 2.6 mm 3 m/s 737 mmHg 97%
03:00 +17°C° 2.6 mm 4 m/s 737 mmHg 97%
04:00 +15°C° 2.6 mm 6 m/s 738 mmHg 97%
05:00 +15°C° 0.6 mm 6 m/s 738 mmHg 95%
06:00 +15°C° 0.6 mm 6 m/s 739 mmHg 93%
07:00 +15°C° 0.6 mm 6 m/s 740 mmHg 91%
08:00 +16°C° 0.1 mm 6 m/s 741 mmHg 89%
09:00 +16°C° 0.1 mm 6 m/s 741 mmHg 87%
10:00 +17°C° 0.1 mm 5 m/s 742 mmHg 85%
11:00 +19°C° 0.2 mm 6 m/s 742 mmHg 77%
12:00 +20°C° 0.2 mm 6 m/s 742 mmHg 69%
13:00 +22°C° 0.2 mm 6 m/s 742 mmHg 62%
14:00 +22°C° 0.2 mm 6 m/s 742 mmHg 63%
15:00 +21°C° 0.2 mm 6 m/s 743 mmHg 64%
16:00 +21°C° 0.2 mm 5 m/s 743 mmHg 66%
17:00 +20°C° 0.1 mm 4 m/s 743 mmHg 71%
18:00 +19°C° 0.1 mm 4 m/s 743 mmHg 76%
19:00 +17°C° 0.1 mm 3 m/s 743 mmHg 81%
20:00 +17°C° 0 mm 3 m/s 744 mmHg 82%
21:00 +16°C° 0 mm 3 m/s 744 mmHg 83%
22:00 +14°C° 0 mm 3 m/s 744 mmHg 84%
23:00 +14°C° 0 mm 3 m/s 744 mmHg 85%

Amanhã, 3 Agosto, Terça-feira

Tempo Temperatura Precipitação Vento Pressão Humidade
00:00 +13°C° 0 mm 3 m/s 745 mmHg 85%
01:00 +13°C° 0 mm 3 m/s 745 mmHg 85%
02:00 +13°C° 0 mm 3 m/s 745 mmHg 86%
03:00 +12°C° 0 mm 3 m/s 745 mmHg 87%
04:00 +12°C° 0 mm 3 m/s 745 mmHg 88%
05:00 +13°C° 0 mm 3 m/s 746 mmHg 81%
06:00 +15°C° 0 mm 4 m/s 746 mmHg 74%
07:00 +18°C° 0 mm 4 m/s 746 mmHg 66%
08:00 +19°C° 0 mm 4 m/s 746 mmHg 60%
09:00 +20°C° 0 mm 5 m/s 747 mmHg 55%
10:00 +22°C° 0 mm 5 m/s 747 mmHg 49%
11:00 +22°C° 0 mm 5 m/s 747 mmHg 47%
12:00 +22°C° 0 mm 5 m/s 746 mmHg 46%
13:00 +23°C° 0 mm 5 m/s 746 mmHg 45%
14:00 +23°C° 0 mm 5 m/s 746 mmHg 46%
15:00 +23°C° 0 mm 5 m/s 746 mmHg 47%
16:00 +23°C° 0 mm 4 m/s 746 mmHg 47%
17:00 +21°C° 0 mm 3 m/s 746 mmHg 53%
18:00 +20°C° 0 mm 3 m/s 746 mmHg 58%
19:00 +19°C° 0 mm 2 m/s 746 mmHg 63%
20:00 +19°C° 0 mm 1 m/s 746 mmHg 65%
21:00 +18°C° 0 mm 1 m/s 747 mmHg 67%
22:00 +18°C° 0 mm 1 m/s 747 mmHg 69%
23:00 +16°C° 0 mm 1 m/s 747 mmHg 69%

Depois de amanhã, 4 Agosto, Quarta-feira

Tempo Temperatura Precipitação Vento Pressão Humidade
00:00 +16°C° 0 mm 2 m/s 747 mmHg 70%
01:00 +16°C° 0 mm 2 m/s 747 mmHg 70%
02:00 +16°C° 0 mm 2 m/s 747 mmHg 70%
03:00 +16°C° 0 mm 2 m/s 747 mmHg 71%
04:00 +16°C° 0 mm 2 m/s 747 mmHg 71%
05:00 +17°C° 0 mm 2 m/s 747 mmHg 68%
06:00 +18°C° 0 mm 2 m/s 747 mmHg 65%
07:00 +20°C° 0 mm 2 m/s 747 mmHg 62%
08:00 +21°C° 0 mm 2 m/s 747 mmHg 58%
09:00 +23°C° 0 mm 2 m/s 747 mmHg 55%
10:00 +25°C° 0 mm 2 m/s 747 mmHg 52%
11:00 +24°C° 0.4 mm 2 m/s 747 mmHg 55%
12:00 +24°C° 0.4 mm 3 m/s 747 mmHg 59%
13:00 +24°C° 0.4 mm 3 m/s 746 mmHg 63%
14:00 +24°C° 0.1 mm 3 m/s 746 mmHg 60%
15:00 +25°C° 0.1 mm 3 m/s 746 mmHg 56%
16:00 +25°C° 0.1 mm 3 m/s 746 mmHg 53%
17:00 +24°C° 0.3 mm 2 m/s 746 mmHg 61%
18:00 +21°C° 0.3 mm 2 m/s 746 mmHg 69%
19:00 +19°C° 0.3 mm 2 m/s 746 mmHg 76%
20:00 +19°C° 0.1 mm 2 m/s 746 mmHg 80%
21:00 +18°C° 0.1 mm 2 m/s 746 mmHg 83%
22:00 +17°C° 0.1 mm 2 m/s 746 mmHg 86%
23:00 +17°C° 0 mm 2 m/s 746 mmHg 86%

5 Agosto, Quinta-feira

Tempo Temperatura Precipitação Vento Pressão Humidade
00:00 +17°C° 0 mm 2 m/s 746 mmHg 86%
01:00 +17°C° 0 mm 2 m/s 746 mmHg 86%
02:00 +17°C° 0.1 mm 2 m/s 745 mmHg 87%
03:00 +17°C° 0.1 mm 2 m/s 745 mmHg 88%
04:00 +17°C° 0.1 mm 3 m/s 745 mmHg 89%
05:00 +17°C° 0 mm 3 m/s 745 mmHg 89%
06:00 +18°C° 0 mm 3 m/s 745 mmHg 88%
07:00 +18°C° 0 mm 3 m/s 745 mmHg 87%
08:00 +19°C° 0 mm 4 m/s 745 mmHg 83%
09:00 +19°C° 0 mm 4 m/s 744 mmHg 79%
10:00 +20°C° 0 mm 5 m/s 744 mmHg 75%
11:00 +20°C° 0.1 mm 4 m/s 744 mmHg 76%
12:00 +20°C° 0.1 mm 4 m/s 743 mmHg 77%
13:00 +20°C° 0.1 mm 4 m/s 743 mmHg 78%
14:00 +20°C° 0.1 mm 5 m/s 742 mmHg 75%
15:00 +21°C° 0.1 mm 6 m/s 742 mmHg 73%
16:00 +22°C° 0.1 mm 7 m/s 741 mmHg 70%
17:00 +21°C° 0.4 mm 6 m/s 740 mmHg 76%
18:00 +20°C° 0.4 mm 5 m/s 740 mmHg 82%
19:00 +19°C° 0.4 mm 4 m/s 739 mmHg 87%
20:00 +19°C° 1.8 mm 5 m/s 738 mmHg 90%
21:00 +19°C° 1.8 mm 5 m/s 738 mmHg 93%
22:00 +19°C° 1.8 mm 5 m/s 737 mmHg 96%
23:00 +17°C° 1.1 mm 7 m/s 736 mmHg 95%

6 Agosto, Sexta-feira

Tempo Temperatura Precipitação Vento Pressão Humidade
00:00 +17°C° 1.1 mm 8 m/s 735 mmHg 95%
01:00 +17°C° 1.1 mm 9 m/s 735 mmHg 94%
02:00 +16°C° 0 mm 9 m/s 735 mmHg 93%
03:00 +16°C° 0 mm 8 m/s 736 mmHg 92%
04:00 +15°C° 0 mm 8 m/s 736 mmHg 91%
05:00 +15°C° 0 mm 8 m/s 737 mmHg 89%
06:00 +15°C° 0 mm 8 m/s 737 mmHg 87%
07:00 +16°C° 0 mm 8 m/s 737 mmHg 85%
08:00 +16°C° 0 mm 8 m/s 738 mmHg 84%
09:00 +16°C° 0 mm 8 m/s 738 mmHg 83%
10:00 +17°C° 0 mm 9 m/s 739 mmHg 81%
11:00 +18°C° 0.1 mm 8 m/s 739 mmHg 77%
12:00 +20°C° 0.1 mm 8 m/s 739 mmHg 72%
13:00 +21°C° 0.1 mm 8 m/s 740 mmHg 67%
14:00 +22°C° 0.1 mm 7 m/s 740 mmHg 64%
15:00 +23°C° 0.1 mm 7 m/s 740 mmHg 61%
16:00 +23°C° 0.1 mm 6 m/s 740 mmHg 57%
17:00 +22°C° 0 mm 5 m/s 740 mmHg 61%
18:00 +21°C° 0 mm 4 m/s 741 mmHg 65%
19:00 +19°C° 0 mm 3 m/s 741 mmHg 69%
20:00 +19°C° 0 mm 3 m/s 741 mmHg 72%
21:00 +18°C° 0 mm 3 m/s 741 mmHg 74%
22:00 +17°C° 0 mm 3 m/s 742 mmHg 76%
23:00 +17°C° 0 mm 3 m/s 742 mmHg 77%

7 Agosto, Sábado

Tempo Temperatura Precipitação Vento Pressão Humidade
00:00 +17°C° 0 mm 3 m/s 742 mmHg 78%
01:00 +16°C° 0 mm 3 m/s 742 mmHg 79%
02:00 +16°C° 0 mm 3 m/s 743 mmHg 81%
03:00 +16°C° 0 mm 3 m/s 743 mmHg 84%
04:00 +14°C° 0 mm 3 m/s 743 mmHg 86%
05:00 +17°C° 0 mm 3 m/s 743 mmHg 81%
06:00 +18°C° 0 mm 3 m/s 744 mmHg 77%
07:00 +20°C° 0 mm 3 m/s 744 mmHg 73%
08:00 +21°C° 0 mm 4 m/s 744 mmHg 68%
09:00 +23°C° 0 mm 4 m/s 744 mmHg 63%
10:00 +25°C° 0 mm 4 m/s 745 mmHg 59%
11:00 +26°C° 0 mm 4 m/s 745 mmHg 55%
12:00 +27°C° 0 mm 4 m/s 745 mmHg 52%
13:00 +28°C° 0 mm 4 m/s 744 mmHg 48%
14:00 +28°C° 0 mm 4 m/s 744 mmHg 47%
15:00 +28°C° 0 mm 3 m/s 744 mmHg 46%
16:00 +28°C° 0 mm 3 m/s 744 mmHg 45%
17:00 +26°C° 0 mm 3 m/s 744 mmHg 52%
18:00 +25°C° 0 mm 3 m/s 744 mmHg 58%
19:00 +22°C° 0 mm 3 m/s 744 mmHg 65%
20:00 +21°C° 0 mm 3 m/s 745 mmHg 65%
21:00 +21°C° 0 mm 3 m/s 745 mmHg 65%
22:00 +20°C° 0 mm 3 m/s 745 mmHg 65%
23:00 +20°C° 0 mm 3 m/s 745 mmHg 67%
Mostrar mais

Necessitamos do seu Consentimento

A Meteoprog e os seus Fornecedores de Serviços podem armazenar e aceder a dados pessoais como cookies, identificadores do dispositivo ou outras tecnologias semelhantes existentes no seu dispositivo e processar estes dados para personalizar conteúdos e anúncios, assim como funcionalidades nas redes sociais e análise de tráfego.

  • Armazenar e/ou aceder a informações no seu dispositivo

    Os cookies, identificadores do dispositivo ou outras informações podem ser armazenados ou acedidos no seu dispositivo, para os fins acima indicados.

  • Anúncios e conteúdos personalizados, medição de anúncios e conteúdos, dados sobre o público-alvo e desenvolvimento de produtos

    Os anúncios e os conteúdos podem ser personalizados com base num perfil. Podem ser adicionados dados adicionais para uma maior personalização dos anúncios e dos conteúdos. A eficácia dos anúncios e dos conteúdos pode ser medida. Podem ser obtidas informações sobre o público que visualizou os anúncios e os conteúdos. Estes dados podem ser usados para desenvolver ou melhorar sistemas, softwares ou a experiência do utilizador.

Ao clicar em "Eu concordo”, permitirá o uso de cookies, identificadores do dispositivo e web beacons mencionados ou outras tecnologias semelhantes. As configurações do navegador do seu dispositivo podem ser alteradas.

Para certos fins, podem ser invocados interesses legítimos ao invés de consentimento. Pode ler mais informação sobre este assunto na nossa Política de Privacidade e Cookies.